KF4IRC Mobile AL US current weather conditions

sailwx.info

Wind from 216

Air temperature 25.0° C
Dewpoint 22.7° C

Last reported at 2019-Jul-23 21:58 UTC.
Time now 2019-Jul-23 22:19 UTC

Location: N 30°40' W 088°07'.
View on Google Maps.

See reports from other nearby stations

  
Tides and Currents Weather Stations Pressure Air Temp Water Temp Dewpoint Dewpoint Depression Visibility Wind Speed Wind Dir Waves Ship Positions
date/time (UTC)wind fromknots sea level pressurealtimeterstation pressurevisibilityair tempwater tempwave heightnotes
2019-Jul-23 21:58 216 25.0
2019-Jul-23 21:48 216 24.4
2019-Jul-23 21:38 216 4 gusting 6 24.4
2019-Jul-23 21:27 284 1 gusting 2 25.6
2019-Jul-23 21:18 276 25.6
2019-Jul-23 21:08 159 0 gusting 4 25.6
2019-Jul-23 20:57 267 0 gusting 2 25.0
2019-Jul-23 20:48 297 1 gusting 3 25.0
2019-Jul-23 20:37 300 25.0
2019-Jul-23 20:28 284 0 gusting 3 24.4
2019-Jul-23 20:17 181 1 gusting 5 24.4
2019-Jul-23 20:07 147 24.4
2019-Jul-23 19:58 121 23.9
2019-Jul-23 19:47 121 0 gusting 0 23.9
2019-Jul-23 19:38 121 23.9
2019-Jul-23 19:28 103 23.9
2019-Jul-23 19:17 183 23.9
2019-Jul-23 19:07 067 0 gusting 3 23.9
2019-Jul-23 18:58 164 2 gusting 6 24.4
2019-Jul-23 18:47 063 0 gusting 5 25.0
2019-Jul-23 18:37 069 2 gusting 6 26.1
2019-Jul-23 18:27 276 2 gusting 3 26.7
2019-Jul-23 18:18 192 0 gusting 2 27.2
2019-Jul-23 18:08 198 1 gusting 2 27.8
2019-Jul-23 17:58 195 28.3
2019-Jul-23 17:48 197 28.9
2019-Jul-23 17:38 193 29.4
2019-Jul-23 17:28 115 30.6
2019-Jul-23 17:18 181 30.6
2019-Jul-23 17:07 203 0 gusting 1 31.1
2019-Jul-23 16:57 261 31.1
2019-Jul-23 16:48 192 31.7
2019-Jul-23 16:37 198 32.2
2019-Jul-23 16:28 138 0 gusting 1 32.2
2019-Jul-23 16:18 087 1 gusting 2 31.7
2019-Jul-23 16:08 190 0 gusting 2 31.1
2019-Jul-23 15:57 188 31.1
2019-Jul-23 15:48 118 0 gusting 1 30.6
2019-Jul-23 15:37 144 30.6
2019-Jul-23 15:28 225 0 gusting 1 30.6
2019-Jul-23 15:18 165 0 gusting 1 30.0
2019-Jul-23 15:07 184 0 gusting 2 29.4
2019-Jul-23 14:57 176 0 gusting 1 28.9
2019-Jul-23 14:47 176 28.9
2019-Jul-23 14:39 228 28.9
2019-Jul-23 14:28 141 28.9
2019-Jul-23 14:17 138 28.3
2019-Jul-23 14:07 173 28.3
2019-Jul-23 13:58 183 0 gusting 2 28.3
2019-Jul-23 13:47 193 27.8
2019-Jul-23 13:37 195 0 gusting 3 27.8
2019-Jul-23 13:27 205 27.2
2019-Jul-23 13:17 205 26.7
2019-Jul-23 13:07 210 26.1
2019-Jul-23 12:57 259 0 gusting 2 26.1
2019-Jul-23 12:49 193 25.6
2019-Jul-23 12:37 192 0 gusting 1 25.0
2019-Jul-23 12:27 188 0 gusting 2 25.0
2019-Jul-23 12:19 223 24.4
2019-Jul-23 12:08 222 24.4
2019-Jul-23 11:58 203 23.9
2019-Jul-23 11:48 203 23.9
2019-Jul-23 11:37 203 23.9
2019-Jul-23 11:28 203 23.9
2019-Jul-23 11:19 204 23.9
2019-Jul-23 11:08 204 23.3
2019-Jul-23 10:57 204 23.9
2019-Jul-23 10:48 204 23.9
2019-Jul-23 10:37 204 23.9
2019-Jul-23 10:28 204 23.9
2019-Jul-23 10:18 212 23.9
2019-Jul-23 10:07 212 23.9
2019-Jul-23 09:59 212 23.9
2019-Jul-23 09:48 212 23.9
2019-Jul-23 09:38 212 23.3
2019-Jul-23 09:27 212 23.3
2019-Jul-23 09:18 212 23.3
2019-Jul-23 09:07 212 23.3
2019-Jul-23 08:58 212 23.3
2019-Jul-23 08:49 212 23.3
2019-Jul-23 08:38 212 23.3
2019-Jul-23 08:27 212 23.3
2019-Jul-23 08:18 212 23.3
2019-Jul-23 08:07 212 23.3
2019-Jul-23 07:58 212 23.3
2019-Jul-23 07:48 212 23.3
2019-Jul-23 07:38 212 23.3
2019-Jul-23 07:27 212 23.3
2019-Jul-23 07:17 212 23.3
2019-Jul-23 07:08 212 23.3
2019-Jul-23 06:58 212 23.3
2019-Jul-23 06:48 212 23.3
2019-Jul-23 06:39 212 23.3
2019-Jul-23 06:28 212 23.3
2019-Jul-23 06:17 212 23.3
2019-Jul-23 06:09 212 23.3
2019-Jul-23 05:58 212 23.3
2019-Jul-23 05:47 212 23.3
2019-Jul-23 05:38 212 23.3
2019-Jul-23 05:28 212 23.3
2019-Jul-23 05:18 212 23.9
2019-Jul-23 05:07 212 23.9
2019-Jul-23 04:59 212 23.9
2019-Jul-23 04:47 212 23.9
2019-Jul-23 04:37 212 23.9
2019-Jul-23 04:28 212 23.9
2019-Jul-23 04:17 212 23.9
2019-Jul-23 04:07 212 23.9
2019-Jul-23 03:58 212 23.9
2019-Jul-23 03:48 212 23.9
2019-Jul-23 03:37 212 23.9
2019-Jul-23 03:27 212 24.4
2019-Jul-23 03:17 212 24.4
2019-Jul-23 03:08 212 24.4
2019-Jul-23 02:58 212 24.4
2019-Jul-23 02:48 212 24.4
2019-Jul-23 02:38 212 25.0
2019-Jul-23 02:29 212 25.0
2019-Jul-23 02:18 212 25.0
2019-Jul-23 02:07 212 25.6
2019-Jul-23 01:57 212 25.6
2019-Jul-23 01:49 211 25.6
2019-Jul-23 01:38 285 0 gusting 1 26.1
2019-Jul-23 01:27 292 26.1
2019-Jul-23 01:18 279 0 gusting 3 26.7
2019-Jul-23 01:07 172 2 gusting 5 27.2
2019-Jul-23 00:58 295 27.2
2019-Jul-23 00:47 207 27.2
2019-Jul-23 00:37 295 27.2
2019-Jul-23 00:28 294 0 gusting 2 27.2
2019-Jul-23 00:18 317 27.2
2019-Jul-23 00:08 196 27.2
2019-Jul-22 23:57 198 27.2
2019-Jul-22 23:48 163 27.2
2019-Jul-22 23:38 192 27.2
2019-Jul-22 23:28 198 27.2
2019-Jul-22 23:18 185 0 gusting 4 27.2
2019-Jul-22 23:09 221 0 gusting 2 27.2
2019-Jul-22 22:58 244 0 gusting 1 27.8
2019-Jul-22 22:48 214 27.8
2019-Jul-22 22:37 281 27.8
2019-Jul-22 22:28 296 27.8
2019-Jul-22 22:18 279 0 gusting 5 28.3
2019-Jul-22 22:08 287 1 gusting 4 28.3
2019-Jul-22 21:57 227 28.9
2019-Jul-22 21:48 200 0 gusting 5 28.9
2019-Jul-22 21:38 173 2 gusting 7 29.4
2019-Jul-22 21:27 188 1 gusting 5 29.4
2019-Jul-22 21:18 194 1 gusting 6 29.4
2019-Jul-22 21:07 203 3 gusting 6 29.4
2019-Jul-22 20:58 170 29.4
2019-Jul-22 20:48 032 2 gusting 6 28.9
2019-Jul-22 20:37 215 2 gusting 4 28.3
2019-Jul-22 20:29 044 0 gusting 5 27.8
2019-Jul-22 20:17 130 0 gusting 3 26.7
2019-Jul-22 20:07 124 0 gusting 3 26.1
2019-Jul-22 19:57 140 0 gusting 2 26.1
2019-Jul-22 19:48 103 0 gusting 2 25.6
2019-Jul-22 19:37 103 0 gusting 1 25.6
2019-Jul-22 19:27 109 0 gusting 3 25.0
2019-Jul-22 19:17 055 0 gusting 2 25.0
2019-Jul-22 19:08 142 0 gusting 2 25.0
2019-Jul-22 18:58 113 25.0
2019-Jul-22 18:48 088 25.0
2019-Jul-22 18:38 198 25.0
2019-Jul-22 18:28 209 25.0
2019-Jul-22 18:18 208 0 gusting 4 25.6
2019-Jul-22 18:08 173 0 gusting 2 27.2
2019-Jul-22 17:58 276 1 gusting 3 28.9
2019-Jul-22 17:48 042 1 gusting 2 29.4
2019-Jul-22 17:37 076 0 gusting 3 29.4
2019-Jul-22 17:29 050 2 gusting 5 30.0
2019-Jul-22 17:17 101 2 gusting 6 30.6
2019-Jul-22 17:08 146 0 gusting 3 30.6
2019-Jul-22 16:57 196 1 gusting 4 31.1
2019-Jul-22 16:48 074 2 gusting 5 31.7
2019-Jul-22 16:37 218 1 gusting 3 31.7
2019-Jul-22 16:29 207 31.1
2019-Jul-22 16:17 203 0 gusting 4 31.1
2019-Jul-22 16:07 267 0 gusting 2 31.1
2019-Jul-22 15:58 183 0 gusting 3 30.6
2019-Jul-22 15:47 178 0 gusting 1 30.6
2019-Jul-22 15:37 179 30.6
2019-Jul-22 15:27 155 30.6
2019-Jul-22 15:17 236 30.0
2019-Jul-22 15:08 229 1 gusting 3 29.4
2019-Jul-22 14:58 242 1 gusting 2 28.9
2019-Jul-22 14:48 194 0 gusting 3 28.3
2019-Jul-22 14:39 141 28.3
2019-Jul-22 14:28 194 0 gusting 3 27.2
2019-Jul-22 14:17 200 0 gusting 2 26.7
2019-Jul-22 14:08 186 26.1
2019-Jul-22 13:58 186 25.6
2019-Jul-22 13:48 208 25.6
2019-Jul-22 13:38 309 25.0
2019-Jul-22 13:27 160 0 gusting 1 25.0
2019-Jul-22 13:18 270 24.4
2019-Jul-22 13:07 270 24.4
2019-Jul-22 12:58 279 24.4
2019-Jul-22 12:48 279 23.9
2019-Jul-22 12:38 171 0 gusting 1 23.9
2019-Jul-22 12:28 171 0 gusting 2 23.9
2019-Jul-22 12:18 184 23.9
2019-Jul-22 12:07 237 0 gusting 2 23.9
2019-Jul-22 11:58 207 23.9
2019-Jul-22 11:48 192 0 gusting 1 23.3
2019-Jul-22 11:38 229 0 gusting 2 23.3
2019-Jul-22 11:28 233 23.3
2019-Jul-22 11:17 233 23.3
2019-Jul-22 11:08 233 23.3
2019-Jul-22 10:57 233 23.3
2019-Jul-22 10:47 233 23.3
2019-Jul-22 10:39 233 23.3
2019-Jul-22 10:27 233 23.3
2019-Jul-22 10:18 233 23.3
2019-Jul-22 10:08 233 23.3
2019-Jul-22 09:58 233 23.3
2019-Jul-22 09:47 233 23.3
2019-Jul-22 09:38 233 23.3
2019-Jul-22 09:28 233 23.3
2019-Jul-22 09:17 233 0 gusting 1 23.3
2019-Jul-22 09:08 233 23.3
2019-Jul-22 08:58 233 23.3
2019-Jul-22 08:48 233 23.3
2019-Jul-22 08:37 233 23.3
2019-Jul-22 08:28 233 23.3
2019-Jul-22 08:17 233 23.3
2019-Jul-22 08:08 233 23.3
2019-Jul-22 07:58 233 23.3
2019-Jul-22 07:47 233 23.9
2019-Jul-22 07:37 233 23.9
2019-Jul-22 07:28 233 23.9
2019-Jul-22 07:17 233 0 gusting 1 23.9
2019-Jul-22 07:08 257 23.9
2019-Jul-22 06:58 257 0 gusting 2 23.9
2019-Jul-22 06:47 256 0 gusting 0 23.9
2019-Jul-22 06:38 256 23.9
2019-Jul-22 06:28 256 23.9
2019-Jul-22 06:19 256 23.9
2019-Jul-22 06:08 256 24.4
2019-Jul-22 05:57 256 24.4
2019-Jul-22 05:48 256 24.4
2019-Jul-22 05:38 256 24.4
2019-Jul-22 05:28 256 0 gusting 1 24.4
2019-Jul-22 05:18 256 24.4
2019-Jul-22 05:07 256 24.4
2019-Jul-22 04:58 256 24.4
2019-Jul-22 04:49 256 24.4
2019-Jul-22 04:38 256 24.4
2019-Jul-22 04:28 160 23.9
2019-Jul-22 04:18 160 23.9
2019-Jul-22 04:08 160 23.9
2019-Jul-22 03:57 160 23.9
2019-Jul-22 03:48 160 24.4
2019-Jul-22 03:37 160 24.4
2019-Jul-22 03:28 160 24.4
2019-Jul-22 03:17 160 24.4
2019-Jul-22 03:07 160 25.0
2019-Jul-22 02:57 160 25.0
2019-Jul-22 02:48 160 25.0
2019-Jul-22 02:38 160 25.0
2019-Jul-22 02:28 160 25.0
2019-Jul-22 02:18 161 0 gusting 2 25.0
2019-Jul-22 02:08 200 25.0
2019-Jul-22 01:58 200 25.0
2019-Jul-22 01:47 200 25.6
2019-Jul-22 01:38 200 25.6
2019-Jul-22 01:27 200 25.6
2019-Jul-22 01:18 200 26.1
2019-Jul-22 01:08 200 26.7
2019-Jul-22 00:57 200 26.7
2019-Jul-22 00:49 200 27.2
2019-Jul-22 00:37 198 0 gusting 1 27.2
2019-Jul-22 00:28 198 27.2
2019-Jul-22 00:18 192 27.8
2019-Jul-22 00:08 275 0 gusting 3 27.8
2019-Jul-21 23:58 198 1 gusting 3 27.8
2019-Jul-21 23:47 166 0 gusting 6 27.8
2019-Jul-21 23:38 245 1 gusting 5 28.3
2019-Jul-21 23:27 211 0 gusting 5 28.3
2019-Jul-21 23:17 121 1 gusting 5 28.3
2019-Jul-21 23:07 189 0 gusting 6 28.3
2019-Jul-21 22:57 183 2 gusting 4 28.9
2019-Jul-21 22:47 289 0 gusting 4 28.9
2019-Jul-21 22:37 275 0 gusting 5 28.9
2019-Jul-21 22:27 221 3 gusting 6 29.4
2019-Jul-21 22:17 204 2 gusting 6 29.4
2019-Jul-21 22:08 284 1 gusting 7 29.4